Regional Weather Roundup
Issued by NWS Charleston, SC

Current Version | Previous Version | Text Only | Print | Product List | Glossary Off
Versions: 1 2 3 4 5 6 7 8 9 10 11 12 13 14 15 16 17 18 19 20 21 22 23 24 25 26 27 28 29 30 31 32 33 34 35 36 37 38 39 40 41 42 43 44 45 46 47 48 49 50

000
ASUS42 KCHS 101327
RWRCHS

REGIONAL WEATHER ROUNDUP
NATIONAL WEATHER SERVICE CHARLESTON SC
800 AM EST WED FEB 10 2016

NOTE: "FAIR" INDICATES FEW OR NO CLOUDS BELOW 12,000 FEET WITH NO
SIGNIFICANT WEATHER AND/OR OBSTRUCTIONS TO VISIBILITY.

NOT ALL STATIONS ARE QUALITY CONTROLLED BY THE NATIONAL
WEATHER SERVICE. USE DATA WITH CAUTION...ESPECIALLY
DEWPOINT OBSERVATIONS.

SCZ027-030-031-034>040-042>050-101400-
...SOUTHEAST SOUTH CAROLINA...

CITY           SKY/WX    TMP DP  RH WIND       PRES   REMARKS
N CHARLESTON   CLEAR     31  16  54 W13       30.05R WCI  21
WATERFRONT PRK   N/A     31  20  63 W6        29.88R WCI  25
MOUNT PLEASANT FAIR      32  19  59 W13G21    30.05R WCI  22
JOHNS ISLAND   FAIR      32  18  55 W14G22    30.06R WCI  22
PINOPOLIS        N/A     30  21  69 W14       29.95R WCI  20
MONCKS CORNER  FAIR      28  14  54 W6        30.05R WCI  22
SUMMERVILLE    NOT AVBL
BEAUFORT MCAS  CLEAR     31  20  63 W12       30.08R WCI  22
BEAUFORT ARPT  FAIR      32  21  64 W15       30.08R WCI  22
HILTON HEAD IS CLEAR     32  23  69 W9        30.09R WCI  24
WALTERBORO     SUNNY     32  19  59 W14G20    30.08R WCI  22
ALLENDALE      FAIR      30  18  59 W7        30.06S WCI  23

...SOUTHERN MIDLANDS AND PEE DEE...

CITY           SKY/WX    TMP DP  RH WIND       PRES   REMARKS
GEORGETOWN     NOT AVBL
KINGSTREE      NOT AVBL
ORANGEBURG     CLEAR     29  13  51 W16G22    30.05R WCI  17
BARNWELL       CLOUDY    32  19  59 W7        30.07R WCI  26
AIKEN          CLOUDY    28  14  54 W13G20    30.05R WCI  18
MANNING        FAIR      30  14  51 W8G22     30.04R WCI  23
COLUMBIA       CLEAR     28  11  48 W13       30.02R WCI  17
SUMTER         CLEAR     27  13  56 SW13      29.99R WCI  17
FLORENCE       CLEAR     28  19  69 W9        29.99R WCI  19
MYRTLE BEACH   PTCLDY    30  16  55 W13       30.01R WCI  20
N MYRTLE BEACH CLEAR     31  21  66 W8        29.98R WCI  23

$$

GAZ063-065-086>088-099>101-113>116-118-119-134>141-150-101400-
...SOUTHEAST GEORGIA...

CITY           SKY/WX    TMP DP  RH WIND       PRES   REMARKS
SAVANNAH ARPT  CLEAR     30  21  69 W12       30.10R WCI  20
HUNTER AAF     CLEAR     30  23  75 W10       30.08R WCI  21
FORT STEWART   CLEAR     31  21  66 W9        30.10R WCI  23
STATESBORO     CLEAR     34  17  50 W8G22     30.10R WCI  27
SYLVANIA       SUNNY     31  22  69 NW10      30.10R WCI  23
CLAXTON        FAIR      32  24  73 SW15G21   30.12R WCI  21

...CSRA...CENTRAL AND FAR SOUTHEAST GEORGIA...

CITY           SKY/WX    TMP DP  RH WIND       PRES   REMARKS
THOMSON        CLOUDY    31  21  64 W15G23    30.10R WCI  21
AUGUSTA-BUSH   CLOUDY    30  16  56 W16       30.07R WCI  19
AUGUSTA-DANIEL NOT AVBL
SWAINSBORO     FAIR      30  19  64 W10G17    30.11R WCI  21
VIDALIA        CLEAR     30  21  69 W8        30.14R WCI  23
EASTMAN        FAIR      29  20  68 W8        30.18R WCI  21
HAZLEHURST     FAIR      32  22  67 W5        30.14R WCI  27
ALMA           CLEAR     30  20  66 NW14      30.15R WCI  19
WAYCROSS       CLEAR     34  27  75 W12G21    30.17R WCI  25
JESUP          FAIR      34  28  80 NW10      30.15R WCI  26
BAXLEY         FAIR      32  23  69 NW14G20   30.15R WCI  22
BRUNSWICK      CLEAR     34  27  75 W12       30.15R WCI  25
SAINT SIMONS   CLEAR     34  23  64 W7        30.13R WCI  28

$$

SCZ027-028-034-036>038-045-046-048>050-GAZ119-141-101400-
...LAKE AND SUPPLEMENTAL COASTAL OBSERVATIONS...

STATION/POSITION TIME  TEMP    WIND        PRES    WAVE   SWELL
                       AIR SEA DIR/SP/G            HT/PER HT/PER/DIR
                 (UTC) (F)     (DEG/KT/KT) (MB)    (FT/S) (FT/S/D)
WINYAH BAY       1200   31     270/  7     1014.0
LAKE MURRAY      1200   29     270/ 19/ 23 1014.9R
ACE BASIN NERRS  1200   30     280/  4     1017.0S
FORT PULASKI     1300   33 50  270/ 15/ 19 1019.4R
SAPELO ISLAND    1300   33     280/  9     1020.0R

$$

ANZ835-935-AMZ111-154-330-350-352-354-370-450-454-472-101400-
...C-MAN AND BUOY OBSERVATIONS...

STATION/POSITION TIME  TEMP    WIND        PRES    WAVE   SWELL
                       AIR SEA DIR/SP/G            HT/PER HT/PER/DIR
                 (UTC) (F)     (DEG/KT/KT) (MB)    (FT/S) (FT/S/D)
BUOY 41004       1250   39 64  270/ 25/ 31 1015.9R   8/ 7   2/14
BUOY 41008       1250   38 54  290/ 23/ 25 1019.1R   4/ 5
FOLLY BEACH CMAN 1300   32     260/  9/ 15 1017.7R
CAPERS NEARSHORE 1208   34     290/ 21/ 29 1015.9R
FRIPP NEARSHORE  1200   35     330/ 23/ 29 1017.2R


STATION/POSITION TIME  TEMP    WIND        PRES    WAVE   SWELL
                       AIR SEA DIR/SP/G            HT/PER HT/PER/DIR
                 (UTC) (F)     (DEG/KT/KT) (MB)    (FT/S) (FT/S/D)
5E ST. MARYS GA  1221      55                N/A     3/15   2/ 70/15
FRYING PAN BUOY  1300          270/ 19/ 23 1014.5R
BUOY 41025       1250   38 73  290/ 27/ 35 1011.0R   8/ 6   3/ 80/14
CAPE LOOKOUT NC  NOT AVBL
BUOY 41002       1250   52 68  280/ 29/ 35   N/A    19/11  10/280/11
BUOY 41010       1220   57 72              1018.9R
ST AUGUSTINE FL  1300   40 56  250/  4/  5 1022.4R


$$



USA.gov is the U.S. government's official web portal to all federal, state and local government web resources and services.